sat.trackr.live / text

‹ back to catalog

STARLINK-32945

NORAD 63118 · 2025-039Q

PAYLOAD ACTIVE UNKNOWN

§ Identity

Operator
Country
US
Launch date
2025-02-27
Launch site
AFETR
Launch vehicle
Mass (kg)
RCS (m²)

Purposes: comms

External: N2YO · Heavens-Above · Gunter

§ Orbital elements

Epoch: 2026-05-25T03:48:48.592800Z

Period
94.27 min
Inclination
43.0070°
Eccentricity
0.0002536
Mean motion
15.27581060 rev/d
Perigee alt
481.3 km
Apogee alt
484.8 km
Semi-major
6,861.2 km
B*
4.5409e-4
RAAN
300.7557°
Arg perigee
251.4443°
Mean anomaly
108.6133°
Rev number
6,976

§ Raw data

STARLINK-329451 63118U 25039Q   26145.15889575  .00012255  00000+0  45409-3 0  99932 63118  43.0070 300.7557 0002536 251.4443 108.6133 15.27581060 69766

JSON: /api/v1/satellites/63118 · /tle

For live sub-satellite position, see the globe view (requires WebGL).

§ Visibility from observer

Set your observer location to see the next 7 days of passes ≥ 10°. The values pass through the URL so the page stays shareable.

No JS? Fill the form by hand. The geolocation button needs JavaScript.